218  
ASUS42 KILM 201013  
RWRILM  
RWRILM  
REGIONAL HOURLY WEATHER ROUNDUP  
NATIONAL WEATHER SERVICE WILMINGTON NC  
600 AM EDT FRI APR 20 2018  
 
NOTE: "FAIR" INDICATES FEW OR NO CLOUDS BELOW 12,000 FEET WITH NO  
SIGNIFICANT WEATHER AND/OR S TO VISIBILITY
.  
   
..............WFO WILMINGTON COUNTY WARNING AREA............
 
 
   
.....COASTAL NC AND SC COUNTIES...
 
 
 
CITY SKY/WX TMP DP RH WIND PRES REMARKS
 
WILMINGTON FAIR 44 31 60 N12 30.26R  
N MYRTLE BEACH FAIR 46 31 55 N10 30.25R  
MYRTLE BEACH FAIR 46 32 58 N12 30.27R  
   
.....INLAND NC AND SC COUNTIES....
 
 
 
CITY SKY/WX TMP DP RH WIND PRES REMARKS
 
LUMBERTON FAIR 40 31 70 N6 30.28R  
ELIZABETHTOWN FAIR 40 31 71 MISG 30.28R  
WHITEVILLE FAIR 44 31 60 N5 30.27R  
FLORENCE FAIR 42 31 64 N5 30.29R  
DARLINGTON FAIR 40 31 70 N6 30.30R  
KINGSTREE FAIR 45 28 53 CALM 30.28R  
HARTSVILLE FAIR 39 28 65 N6 30.28R WCI 35  
BENNETTSVILLE FAIR 41 32 70 N3 30.29R  
CONWAY FAIR 43 32 65 N5 30.27R  
GEORGETOWN FAIR 45 30 57 N13G23 30.26R  
MARION FAIR 41 30 65 N6 30.29R  
   
...................REST OF NORTH CAROLINA...................
 
 
   
........EASTERN NC......
 
 
 
CITY SKY/WX TMP DP RH WIND PRES REMARKS
 
CAPE HATTERAS FAIR 49 31 49 N10G25 30.22R  
JACKSONVILLE FAIR 37 33 85 CALM 30.27R  
MOREHEAD CITY FAIR 44 29 55 N8 30.25R  
KENANSVILLE FAIR 37 32 81 CALM 30.28R  
NEW BERN FAIR 40 31 70 NE7 30.27R  
ELIZABETH CITY FAIR 38 30 73 W5 30.24R WCI 34  
   
........CENTRAL NC......
 
 
 
CITY SKY/WX TMP DP RH WIND PRES REMARKS
 
RALEIGH DURHAM FAIR 36 30 79 CALM 30.27R  
ROCKY MOUNT FAIR 36 31 82 CALM 30.27R  
ROANOKE RAPIDS NOT AVBL  
FAYETTEVILLE FAIR 40 29 64 N5 30.28R  
HOFFMAN FAIR 38 30 70 N3 30.28S  
   
........WESTERN NC......
 
 
 
CITY SKY/WX TMP DP RH WIND PRES REMARKS
 
CHARLOTTE FAIR 41 29 62 NE6 30.30R  
GREENSBORO FAIR 37 28 70 SW5 30.27R WCI 33  
HICKORY NOT AVBL  
BOONE NOT AVBL  
ASHEVILLE NOT AVBL  
   
....................REST OF SOUTH CAROLINA..................
 
 
   
........EASTERN SC......
 
 
 
CITY SKY/WX TMP DP RH WIND PRES REMARKS
 
CHARLESTON FAIR 49 30 48 NE12G24 30.24R  
BEAUFORT MCAS MOCLDY 51 34 52 N13 30.23R  
HILTON HEAD MOCLDY 52 32 46 N18G25 30.23R  
   
........CENTRAL SC......
 
 
 
CITY SKY/WX TMP DP RH WIND PRES REMARKS
 
COLUMBIA FAIR 47 30 51 NE6 30.29R  
ORANGEBURG FAIR 45 28 51 NE13 30.27R  
SUMTER SHAW FAIR 42 28 59 N8 30.26R  
   
........WESTERN SC......
 
 
 
CITY SKY/WX TMP DP RH WIND PRES REMARKS
 
GREENVILLE NOT AVBL  
ROCK HILL FAIR 39 30 70 CALM 30.30R  
ANDERSON FAIR 39 30 70 E8 30.28R WCI 33  
CLEMSON NOT AVBL  
GREENWOOD FAIR 39 29 67 NE5 30.30R  
 
   
..................COASTAL AND OFFSHORE REPORTS...............
 
 
   
...............LOCAL PIERS AND NC RESERVE.............
 
 
 
STATION/POSITION TIME SKY/WX TEMP WIND PRES VSBY
 
AIR SEA DIR/SP/G  
(UTC) (F) (DEG/KT/KT) (MB) (MI)  
JOHNY MRCER PIER 0948 46 60 10/ 13/ 15 1024.5R  
NC RESRV MASNBRO NOT AVBL  
OCEAN CREST PIER NOT AVBL  
SPRINGMAID PIER 0948 1027.5R  
 
   
...............COASTAL AND OFFSHORE BUOYS.............
 
 
 
STATION/POSITION TIME SKY/WX TEMP WIND PRES VSBY
 
AIR SEA DIR/SP/G  
(UTC) (F) (DEG/KT/KT) (MB) (MI)  
DIMNDSHOAL 41025 1000 51 71 360/ 23/ 33 1023.3  
CAPE LOOKOUT 1000 10/ 21/ 26 1024.3R  
ONSLOW BAY 41036 NOT AVBL  
ONSLOW BAY 41064 0908 54 65 60/ 19/ 25 1022.9R  
ONSLOW BAY 41159 1000 65 N/A  
WVE H/P(F/S)= 7/ 5  
 
MASNBO INL 41110 1000 60 N/A  
WVE H/P(F/S)= 4/ 5  
 
WILM HARBR 41108 1000 60 N/A  
WVE H/P(F/S)= 5/ 4  
 
27SE WRITB 41037 0908 54 65 50/ 25/ 37 1023.1R  
FRYING PAN 41013 0950 55 64 40/ 25/ 29 1022.7R  
WVE H/P(F/S)= 7/ 6  
 
SUNST NRSH 41024 0908 49 62 20/ 17/ 25 1023.1R  
CAPRS NRSH 41029 0908 53 63 30/ 21/ 29 1022.8R  
EDISTO 41004 1000 57 67 30/ 25/ 31 1022.4  
 
   
.........OFFSHORE BUOYS BEYOND 100 NM OFFSHORE........
 
   
....IN A TRIANGLE---HAT TO BERMUDA TO BAHAMAS TO HAT..
 
 
 
 
STATION/POSITION TIME SKY/WX TEMP WIND PRES VSBY
 
AIR SEA DIR/SP/G  
(UTC) (F) (DEG/KT/KT) (MB) (MI)  
150E HAT 41001 NOT AVBL  
W BERMUDA 41048 0950 70 250/ 17/ 21 1017.5S  
WVE H/P(F/S)= 8/ 9 SWL H/P/D(F/S/D)= 7/290/ 9  
 
ATLANTIC S 41049 1000 76 170/ 12/ 14 1023.3  
E BAHAMAS 41046 0950 78 79 130/ 14/ 16 1020.8R  
WVE H/P(F/S)= 5/15 SWL H/P/D(F/S/D)= 3/ 80/15  
 
NE BAHAMAS 41047 1000 210/ 6/ 8 1020.0  
120E CANVRL41010 0950 74 74 170/ 14/ 16 1018.3R  
WVE H/P(F/S)= 3/ 9 SWL H/P/D(F/S/D)= 2/120/ 9  
 
END  
 
 
CLICK HERE TO GO TO PREVIOUS BULLETINS.

The Nexlab NC Page
The Nexlab SC Page Main Text Page